| time (UTC) | temp F | wind direction | speed MPH | gust MPH | rain 1hr in | rain 24hr in | rain mn in | humidity % | barometer mb |
| 20260904234515 | 98 | 0.0 | 3.0 | 0.00 | 0.00 | 0.00 | 43 | 1013.0 | |
| 20260904233515 | 99 | 0.0 | 1.0 | 0.00 | 0.00 | 0.00 | 43 | 1013.0 | |
| 20260904232515 | 98 | 225 | 1.0 | 2.0 | 0.00 | 0.00 | 0.00 | 42 | 1012.9 |
| 20260904231515 | 98 | 225 | 1.0 | 2.0 | 0.00 | 0.00 | 0.00 | 43 | 1012.9 |
| 20260904230515 | 98 | 225 | 2.0 | 4.0 | 0.00 | 0.00 | 0.00 | 42 | 1013.0 |
| 20260904225515 | 98 | 203 | 1.0 | 5.0 | 0.00 | 0.00 | 0.00 | 42 | 1013.0 |
| 20260904224515 | 98 | 248 | 2.0 | 3.0 | 0.00 | 0.00 | 0.00 | 42 | 1012.9 |
| 20260904223515 | 99 | 180 | 2.0 | 5.0 | 0.00 | 0.00 | 0.00 | 41 | 1013.0 |
| 20260904222515 | 99 | 203 | 2.0 | 5.0 | 0.00 | 0.00 | 0.00 | 42 | 1013.0 |
| 20260904221515 | 99 | 158 | 2.0 | 4.0 | 0.00 | 0.00 | 0.00 | 42 | 1013.1 |
| 20260904220515 | 99 | 203 | 2.0 | 3.0 | 0.00 | 0.00 | 0.00 | 42 | 1013.2 |
| 20260904215515 | 98 | 180 | 3.0 | 6.0 | 0.00 | 0.00 | 0.00 | 42 | 1013.4 |
| 20260904214514 | 98 | 203 | 3.0 | 7.0 | 0.00 | 0.00 | 0.00 | 42 | 1013.4 |
| 20260904213515 | 99 | 203 | 3.0 | 7.0 | 0.00 | 0.00 | 0.00 | 42 | 1013.6 |
| 20260904212515 | 98 | 113 | 2.0 | 7.0 | 0.00 | 0.00 | 0.00 | 43 | 1013.6 |
| 20260904211515 | 98 | 135 | 3.0 | 6.0 | 0.00 | 0.00 | 0.00 | 42 | 1013.7 |
| 20260904210515 | 98 | 113 | 4.0 | 9.0 | 0.00 | 0.00 | 0.00 | 43 | 1013.8 |
| 20260904205514 | 98 | 180 | 3.0 | 7.0 | 0.00 | 0.00 | 0.00 | 43 | 1014.0 |
| 20260904204515 | 98 | 225 | 4.0 | 7.0 | 0.00 | 0.00 | 0.00 | 42 | 1014.1 |
| 20260904203514 | 98 | 135 | 3.0 | 7.0 | 0.00 | 0.00 | 0.00 | 44 | 1014.2 |
| 20260904202515 | 98 | 113 | 3.0 | 7.0 | 0.00 | 0.00 | 0.00 | 43 | 1014.3 |
| 20260904201555 | 98 | 135 | 3.0 | 6.0 | 0.00 | 0.00 | 0.00 | 43 | 1014.6 |
| 20260904200554 | 100 | 158 | 3.0 | 7.0 | 0.00 | 0.00 | 0.00 | 41 | 1014.7 |
| 20260904195515 | 100 | 293 | 2.0 | 6.0 | 0.00 | 0.00 | 0.00 | 41 | 1014.9 |
| 20260904194514 | 100 | 293 | 3.0 | 7.0 | 0.00 | 0.00 | 0.00 | 43 | 1015.0 |
| 20260904193515 | 99 | 225 | 2.0 | 5.0 | 0.00 | 0.00 | 0.00 | 43 | 1015.1 |
| 20260904192515 | 99 | 180 | 4.0 | 6.0 | 0.00 | 0.00 | 0.00 | 42 | 1015.2 |
| 20260904191514 | 98 | 180 | 2.0 | 5.0 | 0.00 | 0.00 | 0.00 | 44 | 1015.3 |
| 20260904190514 | 99 | 180 | 3.0 | 8.0 | 0.00 | 0.00 | 0.00 | 43 | 1015.5 |
| 20260904185514 | 98 | 293 | 4.0 | 8.0 | 0.00 | 0.00 | 0.00 | 44 | 1015.6 |
| 20260904184514 | 97 | 225 | 4.0 | 9.0 | 0.00 | 0.00 | 0.00 | 45 | 1015.6 |
| 20260904183515 | 96 | 180 | 2.0 | 4.0 | 0.00 | 0.00 | 0.00 | 45 | 1015.5 |
| 20260904182514 | 97 | 180 | 3.0 | 6.0 | 0.00 | 0.00 | 0.00 | 44 | 1015.6 |
| 20260904181514 | 97 | 180 | 2.0 | 7.0 | 0.00 | 0.00 | 0.00 | 47 | 1015.8 |
| 20260904180514 | 97 | 180 | 3.0 | 7.0 | 0.00 | 0.00 | 0.00 | 45 | 1015.9 |
| 20260904175514 | 97 | 45 | 2.0 | 8.0 | 0.00 | 0.00 | 0.00 | 46 | 1016.0 |
| 20260904174514 | 96 | 180 | 3.0 | 8.0 | 0.00 | 0.00 | 0.00 | 47 | 1016.1 |
| 20260904173514 | 96 | 293 | 3.0 | 6.0 | 0.00 | 0.00 | 0.00 | 48 | 1016.2 |
| 20260904172534 | 96 | 293 | 2.0 | 8.0 | 0.00 | 0.00 | 0.00 | 48 | 1016.4 |
| 20260904171514 | 96 | 315 | 3.0 | 5.0 | 0.00 | 0.00 | 0.00 | 50 | 1016.4 |
| 20260904170514 | 96 | 158 | 2.0 | 5.0 | 0.00 | 0.00 | 0.00 | 49 | 1016.5 |
| 20260904165514 | 96 | 270 | 2.0 | 5.0 | 0.00 | 0.00 | 0.00 | 48 | 1016.6 |
| 20260904164534 | 96 | 270 | 3.0 | 7.0 | 0.00 | 0.00 | 0.00 | 49 | 1016.6 |
| 20260904163514 | 96 | 293 | 4.0 | 8.0 | 0.00 | 0.00 | 0.00 | 50 | 1016.6 |
| 20260904162514 | 95 | 113 | 2.0 | 7.0 | 0.00 | 0.00 | 0.00 | 51 | 1016.6 |
| 20260904161534 | 94 | 158 | 2.0 | 4.0 | 0.00 | 0.00 | 0.00 | 52 | 1016.7 |
| 20260904160515 | 94 | 315 | 3.0 | 10.0 | 0.00 | 0.00 | 0.00 | 52 | 1016.7 |
| 20260904155514 | 94 | 270 | 3.0 | 8.0 | 0.00 | 0.00 | 0.00 | 54 | 1016.8 |
| 20260904154514 | 93 | 225 | 2.0 | 6.0 | 0.00 | 0.00 | 0.00 | 55 | 1016.7 |
| 20260904153514 | 92 | 180 | 2.0 | 6.0 | 0.00 | 0.00 | 0.00 | 57 | 1016.6 |
| 20260904152514 | 91 | 315 | 3.0 | 9.0 | 0.00 | 0.00 | 0.00 | 59 | 1016.7 |
| 20260904151514 | 91 | 180 | 2.0 | 6.0 | 0.00 | 0.00 | 0.00 | 59 | 1016.6 |
| 20260904150514 | 90 | 180 | 3.0 | 6.0 | 0.00 | 0.00 | 0.00 | 60 | 1016.6 |
| 20260904145514 | 90 | 158 | 2.0 | 5.0 | 0.00 | 0.00 | 0.00 | 61 | 1016.4 |
| 20260904144559 | 89 | 203 | 1.0 | 5.0 | 0.00 | 0.00 | 0.00 | 63 | 1016.5 |
| 20260904143514 | 89 | 180 | 1.0 | 4.0 | 0.00 | 0.00 | 0.00 | 64 | 1016.3 |
| 20260904142514 | 88 | 293 | 1.0 | 5.0 | 0.00 | 0.00 | 0.00 | 66 | 1016.4 |
| 20260904141534 | 87 | 180 | 2.0 | 4.0 | 0.00 | 0.00 | 0.00 | 67 | 1016.3 |
| 20260904140514 | 86 | 270 | 2.0 | 4.0 | 0.00 | 0.00 | 0.00 | 68 | 1016.2 |
| 20260904135514 | 85 | 293 | 2.0 | 5.0 | 0.00 | 0.00 | 0.00 | 69 | 1016.4 |
| 20260904134534 | 85 | 248 | 2.0 | 4.0 | 0.00 | 0.00 | 0.00 | 71 | 1016.3 |
| 20260904133514 | 83 | 225 | 2.0 | 4.0 | 0.00 | 0.00 | 0.00 | 73 | 1016.3 |
| 20260904132534 | 82 | 180 | 2.0 | 3.0 | 0.00 | 0.00 | 0.00 | 76 | 1016.2 |
| 20260904131514 | 81 | 180 | 2.0 | 2.0 | 0.00 | 0.00 | 0.00 | 79 | 1016.2 |
| 20260904130514 | 80 | 0.0 | 2.0 | 0.00 | 0.00 | 0.00 | 83 | 1016.2 | |
| 20260904125514 | 79 | 0.0 | 1.0 | 0.00 | 0.00 | 0.00 | 86 | 1016.3 | |
| 20260904124514 | 77 | 180 | 1.0 | 2.0 | 0.00 | 0.00 | 0.00 | 87 | 1016.3 |
| 20260904123514 | 76 | 0.0 | 0.0 | 0.00 | 0.00 | 0.00 | 89 | 1016.1 | |
| 20260904122514 | 75 | 0.0 | 0.0 | 0.00 | 0.00 | 0.00 | 89 | 1016.0 | |
| 20260904121514 | 75 | 0.0 | 0.0 | 0.00 | 0.00 | 0.00 | 89 | 1016.0 | |
| 20260904120514 | 75 | 0.0 | 0.0 | 0.00 | 0.00 | 0.00 | 89 | 1016.0 | |
| 20260904115514 | 75 | 0.0 | 0.0 | 0.00 | 0.00 | 0.00 | 89 | 1015.9 | |
| 20260904114514 | 75 | 0.0 | 0.0 | 0.00 | 0.00 | 0.00 | 89 | 1015.8 | |
| 20260904113514 | 75 | 0.0 | 0.0 | 0.00 | 0.00 | 0.00 | 89 | 1015.6 | |
| 20260904112514 | 75 | 0.0 | 0.0 | 0.00 | 0.00 | 0.00 | 89 | 1015.5 | |
| 20260904111514 | 75 | 0.0 | 0.0 | 0.00 | 0.00 | 0.00 | 89 | 1015.4 | |
| 20260904110514 | 75 | 0.0 | 0.0 | 0.00 | 0.00 | 0.00 | 88 | 1015.4 | |
| 20260904105514 | 75 | 0.0 | 0.0 | 0.00 | 0.00 | 0.00 | 88 | 1015.3 | |
| 20260904104514 | 75 | 0.0 | 0.0 | 0.00 | 0.00 | 0.00 | 88 | 1015.3 | |
| 20260904103513 | 75 | 0.0 | 0.0 | 0.00 | 0.00 | 0.00 | 88 | 1015.3 | |
| 20260904102514 | 75 | 0.0 | 0.0 | 0.00 | 0.00 | 0.00 | 88 | 1015.2 | |
| 20260904101534 | 75 | 0.0 | 0.0 | 0.00 | 0.00 | 0.00 | 88 | 1015.2 | |
| 20260904100514 | 76 | 0.0 | 1.0 | 0.00 | 0.00 | 0.00 | 88 | 1015.1 | |
| 20260904095513 | 76 | 0.0 | 1.0 | 0.00 | 0.00 | 0.00 | 88 | 1015.0 | |
| 20260904094513 | 76 | 0.0 | 1.0 | 0.00 | 0.00 | 0.00 | 88 | 1014.9 | |
| 20260904093513 | 76 | 0.0 | 1.0 | 0.00 | 0.00 | 0.00 | 88 | 1014.8 | |
| 20260904092536 | 76 | 0.0 | 0.0 | 0.00 | 0.00 | 0.00 | 88 | 1014.9 | |
| 20260904091516 | 76 | 0.0 | 0.0 | 0.00 | 0.00 | 0.00 | 88 | 1014.9 | |
| 20260904090515 | 76 | 0.0 | 0.0 | 0.00 | 0.00 | 0.00 | 88 | 1014.9 | |
| 20260904085555 | 76 | 0.0 | 0.0 | 0.00 | 0.00 | 0.00 | 87 | 1014.7 | |
| 20260904084515 | 77 | 0.0 | 0.0 | 0.00 | 0.00 | 0.00 | 87 | 1014.8 | |
| 20260904083516 | 77 | 0.0 | 0.0 | 0.00 | 0.00 | 0.00 | 87 | 1014.7 | |
| 20260904082536 | 77 | 0.0 | 0.0 | 0.00 | 0.00 | 0.00 | 86 | 1014.7 | |
| 20260904081514 | 77 | 0.0 | 0.0 | 0.00 | 0.00 | 0.00 | 85 | 1014.6 | |
| 20260904080514 | 78 | 0.0 | 0.0 | 0.00 | 0.00 | 0.00 | 85 | 1014.6 | |
| 20260904075514 | 78 | 0.0 | 0.0 | 0.00 | 0.00 | 0.00 | 84 | 1014.6 | |
| 20260904074514 | 78 | 0.0 | 1.0 | 0.00 | 0.00 | 0.00 | 84 | 1014.6 | |
| 20260904073514 | 78 | 0.0 | 1.0 | 0.00 | 0.00 | 0.00 | 84 | 1014.5 | |
| 20260904072514 | 78 | 0.0 | 1.0 | 0.00 | 0.00 | 0.00 | 84 | 1014.5 | |
| 20260904071514 | 78 | 0.0 | 0.0 | 0.00 | 0.00 | 0.00 | 84 | 1014.6 | |
| 20260904070514 | 79 | 0.0 | 0.0 | 0.00 | 0.00 | 0.00 | 83 | 1014.5 | |
| 20260904065514 | 79 | 0.0 | 1.0 | 0.00 | 0.00 | 0.00 | 82 | 1014.7 | |
| 20260904064514 | 80 | 0.0 | 0.0 | 0.00 | 0.00 | 0.00 | 82 | 1014.7 | |
| 20260904063514 | 80 | 0.0 | 1.0 | 0.00 | 0.00 | 0.00 | 81 | 1014.6 | |
| 20260904062514 | 80 | 0.0 | 1.0 | 0.00 | 0.00 | 0.00 | 80 | 1014.7 | |
| 20260904061514 | 80 | 0.0 | 3.0 | 0.00 | 0.00 | 0.00 | 80 | 1014.6 | |
| 20260904060514 | 81 | 0.0 | 0.0 | 0.00 | 0.00 | 0.00 | 79 | 1014.7 | |
| 20260904055534 | 81 | 0.0 | 0.0 | 0.00 | 0.00 | 0.00 | 79 | 1014.8 | |
| 20260904054514 | 81 | 0.0 | 0.0 | 0.00 | 0.00 | 0.00 | 79 | 1014.7 | |
| 20260904053514 | 81 | 0.0 | 0.0 | 0.00 | 0.00 | 0.00 | 78 | 1014.6 | |
| 20260904052534 | 81 | 0.0 | 0.0 | 0.00 | 0.00 | 0.00 | 78 | 1014.6 | |
| 20260904051514 | 81 | 0.0 | 2.0 | 0.00 | 0.00 | 0.00 | 78 | 1014.6 | |
| 20260904050514 | 81 | 135 | 1.0 | 2.0 | 0.00 | 0.00 | 0.00 | 78 | 1014.6 |
| 20260904045515 | 81 | 0.0 | 2.0 | 0.00 | 0.00 | 0.00 | 78 | 1014.7 | |
| 20260904044535 | 81 | 0.0 | 2.0 | 0.00 | 0.00 | 0.00 | 78 | 1014.6 | |
| 20260904043515 | 81 | 0.0 | 0.0 | 0.00 | 0.00 | 0.00 | 78 | 1014.7 | |
| 20260904042514 | 81 | 0.0 | 0.0 | 0.00 | 0.00 | 0.00 | 77 | 1014.6 | |
| 20260904041515 | 81 | 0.0 | 0.0 | 0.00 | 0.00 | 0.00 | 77 | 1014.6 | |
| 20260904040514 | 81 | 0.0 | 0.0 | 0.00 | 0.00 | 0.00 | 76 | 1014.6 | |
| 20260904035555 | 82 | 0.0 | 0.0 | 0.00 | 0.00 | 0.00 | 76 | 1014.6 | |
| 20260904034514 | 82 | 0.0 | 0.0 | 0.00 | 0.00 | 0.00 | 75 | 1014.6 | |
| 20260904033514 | 82 | 0.0 | 0.0 | 0.00 | 0.00 | 0.00 | 74 | 1014.5 | |
| 20260904032514 | 83 | 0.0 | 0.0 | 0.00 | 0.00 | 0.00 | 73 | 1014.5 | |
| 20260904031514 | 83 | 0.0 | 0.0 | 0.00 | 0.00 | 0.00 | 73 | 1014.5 | |
| 20260904030515 | 83 | 0.0 | 0.0 | 0.00 | 0.00 | 0.00 | 72 | 1014.5 | |
| 20260904025514 | 84 | 0.0 | 0.0 | 0.00 | 0.00 | 0.00 | 71 | 1014.4 | |
| 20260904024514 | 84 | 0.0 | 0.0 | 0.00 | 0.00 | 0.00 | 69 | 1014.5 | |
| 20260904023514 | 85 | 0.0 | 0.0 | 0.00 | 0.00 | 0.00 | 68 | 1014.3 | |
| 20260904022514 | 85 | 0.0 | 0.0 | 0.00 | 0.00 | 0.00 | 67 | 1014.2 | |
| 20260904021514 | 85 | 0.0 | 0.0 | 0.00 | 0.00 | 0.00 | 67 | 1014.1 | |
| 20260904020514 | 85 | 0.0 | 0.0 | 0.00 | 0.00 | 0.00 | 66 | 1014.1 | |
| 20260904015514 | 86 | 0.0 | 0.0 | 0.00 | 0.00 | 0.00 | 65 | 1014.0 | |
| 20260904014514 | 86 | 0.0 | 0.0 | 0.00 | 0.00 | 0.00 | 64 | 1013.9 | |
| 20260904013514 | 87 | 0.0 | 2.0 | 0.00 | 0.00 | 0.00 | 63 | 1013.8 | |
| 20260904012514 | 87 | 0.0 | 0.0 | 0.00 | 0.00 | 0.00 | 63 | 1013.7 | |
| 20260904011514 | 87 | 0.0 | 0.0 | 0.00 | 0.00 | 0.00 | 62 | 1013.5 | |
| 20260904010514 | 88 | 0.0 | 0.0 | 0.00 | 0.00 | 0.00 | 61 | 1013.5 | |
| 20260904005514 | 89 | 0.0 | 0.0 | 0.00 | 0.00 | 0.00 | 60 | 1013.3 | |
| 20260904004514 | 90 | 0.0 | 0.0 | 0.00 | 0.00 | 0.00 | 58 | 1013.3 | |
| 20260904003514 | 91 | 0.0 | 1.0 | 0.00 | 0.00 | 0.00 | 56 | 1013.1 | |
| 20260904002534 | 92 | 0.0 | 0.0 | 0.00 | 0.00 | 0.00 | 55 | 1013.1 | |
| 20260904001514 | 92 | 135 | 1.0 | 2.0 | 0.00 | 0.00 | 0.00 | 53 | 1013.1 |
| 20260904000514 | 93 | 135 | 1.0 | 3.0 | 0.00 | 0.00 | 0.00 | 52 | 1013.1 |
| 20260903235514 | 94 | 158 | 1.0 | 3.0 | 0.00 | 0.00 | 0.00 | 50 | 1013.0 |